International Skating Union - Official Site

Essent ISU World Cup Kolomna
November 24-25, 2012

Draw | Lap Times | Index | World Cup

Referee: Jacques  DE KONING  (NED)
Starter: Hartmut  WEIRAUCH  (GER)
StartTime: EndTime: Air Temp: Ice Temp: Humidity:
16:47 17:31 14.6℃ -6.3℃ 30
Result 3000m Ladies Division A
Rankings as of Nov 25 2012 5:52PM
Rank: No.: Name: Nation: Time: Behind: Points:
1 21 Claudia  Pechstein GER GER 4:02.31200m - 20.49 - (20.4)
600m - 51.57 - (31.0)
1000m - 1:22.96 - (31.3)
1400m - 1:54.57 - (31.6)
1800m - 2:26.27 - (31.7)
2200m - 2:58.07 - (31.8)
2600m - 3:30.06 - (31.9)
3000m - 4:02.31 - (32.2)
100
2 16 Martina  Sábliková CZE CZE 4:02.46200m - 20.46 - (20.4)
600m - 51.66 - (31.2)
1000m - 1:23.51 - (31.8)
1400m - 1:54.83 - (31.3)
1800m - 2:26.74 - (31.9)
2200m - 2:58.61 - (31.8)
2600m - 3:30.58 - (31.9)
3000m - 4:02.46 - (31.8)
0.15 80
3 40 Marije  Joling NED NED 4:03.90200m - 19.81 - (19.8)
600m - 50.58 - (30.7)
1000m - 1:21.79 - (31.2)
1400m - 1:53.40 - (31.6)
1800m - 2:25.45 - (32.0)
2200m - 2:57.91 - (32.4)
2600m - 3:30.64 - (32.7)
3000m - 4:03.90 - (33.2)
1.59 70
4 18 Stephanie  Beckert GER GER 4:04.18200m - 20.96 - (20.9)
600m - 52.42 - (31.4)
1000m - 1:23.85 - (31.4)
1400m - 1:55.68 - (31.8)
1800m - 2:27.70 - (32.0)
2200m - 2:59.86 - (32.1)
2600m - 3:32.12 - (32.2)
3000m - 4:04.18 - (32.0)
1.87 60
5 44 Diane  Valkenburg NED NED 4:04.21200m - 20.16 - (20.1)
600m - 50.79 - (30.6)
1000m - 1:21.64 - (30.8)
1400m - 1:53.11 - (31.4)
1800m - 2:24.74 - (31.6)
2200m - 2:56.92 - (32.1)
2600m - 3:29.65 - (32.7)
3000m - 4:04.21 - (34.5)
1.90 50
6 45 Linda  de Vries NED NED 4:05.97200m - 19.78 - (19.7)
600m - 51.23 - (31.4)
1000m - 1:22.74 - (31.5)
1400m - 1:54.71 - (31.9)
1800m - 2:26.73 - (32.0)
2200m - 2:59.09 - (32.3)
2600m - 3:32.12 - (33.0)
3000m - 4:05.97 - (33.8)
3.66 45
7 34 Bo-Reum  Kim KOR KOR 4:06.13200m - 21.01 - (21.0)
600m - 52.94 - (31.9)
1000m - 1:25.08 - (32.1)
1400m - 1:57.43 - (32.3)
1800m - 2:29.51 - (32.0)
2200m - 3:01.89 - (32.3)
2600m - 3:33.91 - (32.0)
3000m - 4:06.13 - (32.2)
3.82 40
8 58 Olga  Graf RUS RUS 4:06.16200m - 20.83 - (20.8)
600m - 52.11 - (31.2)
1000m - 1:23.90 - (31.7)
1400m - 1:55.93 - (32.0)
1800m - 2:28.14 - (32.2)
2200m - 3:00.32 - (32.1)
2600m - 3:33.03 - (32.7)
3000m - 4:06.16 - (33.1)
3.85 35
9 41 Antoinette  de Jong NED NED 4:07.02200m - 20.28 - (20.2)
600m - 51.26 - (30.9)
1000m - 1:22.92 - (31.6)
1400m - 1:54.92 - (32.0)
1800m - 2:27.49 - (32.5)
2200m - 3:00.02 - (32.5)
2600m - 3:33.28 - (33.2)
3000m - 4:07.02 - (33.7)
4.71 30
10 51 Katarzyna  Bachleda-Curus POL POL 4:08.34200m - 20.22 - (20.2)
600m - 51.57 - (31.3)
1000m - 1:22.85 - (31.2)
1400m - 1:54.96 - (32.1)
1800m - 2:27.31 - (32.3)
2200m - 3:00.34 - (33.0)
2600m - 3:34.00 - (33.6)
3000m - 4:08.34 - (34.3)
6.03 25
11 50 Ida  Njåtun NOR NOR 4:09.10200m - 20.51 - (20.5)
600m - 52.44 - (31.9)
1000m - 1:24.50 - (32.0)
1400m - 1:56.49 - (31.9)
1800m - 2:28.94 - (32.4)
2200m - 3:01.58 - (32.6)
2600m - 3:34.92 - (33.3)
3000m - 4:09.10 - (34.1)
6.79 21
12 57 Yevgeniya  Dmitriyeva RUS RUS 4:09.68200m - 20.76 - (20.7)
600m - 52.34 - (31.5)
1000m - 1:23.37 - (31.0)
1400m - 1:55.35 - (31.9)
1800m - 2:27.75 - (32.4)
2200m - 3:01.03 - (33.2)
2600m - 3:35.26 - (34.2)
3000m - 4:09.68 - (34.4)
7.37 18
13 4 Ivanie  Blondin CAN CAN 4:09.96200m - 20.57 - (20.5)
600m - 51.80 - (31.2)
1000m - 1:24.10 - (32.3)
1400m - 1:56.26 - (32.1)
1800m - 2:28.96 - (32.7)
2200m - 3:01.75 - (32.7)
2600m - 3:35.39 - (33.6)
3000m - 4:09.96 - (34.5)
7.65 16
14 52 Natalia  Czerwonka POL POL 4:10.76200m - 20.07 - (20.0)
600m - 51.33 - (31.2)
1000m - 1:22.75 - (31.4)
1400m - 1:54.60 - (31.8)
1800m - 2:27.28 - (32.6)
2200m - 3:00.79 - (33.5)
2600m - 3:35.14 - (34.3)
3000m - 4:10.76 - (35.6)
8.45 14
15 46 Annouk  van der Weijden NED NED 4:11.40200m - 19.73 - (19.7)
600m - 51.22 - (31.4)
1000m - 1:23.10 - (31.8)
1400m - 1:55.32 - (32.2)
1800m - 2:28.28 - (32.9)
2200m - 3:02.11 - (33.8)
2600m - 3:36.19 - (34.0)
3000m - 4:11.40 - (35.2)
9.09 12
16 37 Do-Yeong  Park KOR KOR 4:12.31200m - 20.54 - (20.5)
600m - 52.81 - (32.2)
1000m - 1:25.26 - (32.4)
1400m - 1:58.15 - (32.8)
1800m - 2:31.31 - (33.1)
2200m - 3:04.79 - (33.4)
2600m - 3:38.38 - (33.5)
3000m - 4:12.31 - (33.9)
10.00 10